| time (UTC) | temp C | wind direction | speed KPH | gust KPH | rain 1hr cm | rain 24hr cm | rain mn cm | humidity % | barometer mb |
| 20260510190027 | 35 | 9 | 8.0 | 0.0 | 0.00 | 0.00 | 0.00 | 31 | 1004.8 |
| 20260510184526 | 35 | 333 | 9.7 | 0.0 | 0.00 | 0.00 | 0.00 | 30 | 1004.7 |
| 20260510183025 | 35 | 5 | 6.4 | 0.0 | 0.00 | 0.00 | 0.00 | 27 | 1004.5 |
| 20260510181525 | 35 | 301 | 4.8 | 0.0 | 0.00 | 0.00 | 0.00 | 23 | 1004.5 |
| 20260510180021 | 35 | 360 | 3.2 | 0.0 | 0.00 | 0.00 | 0.00 | 27 | 1004.7 |
| 20260510174518 | 33 | 105 | 3.2 | 0.0 | 0.00 | 0.00 | 0.00 | 28 | 1004.6 |
| 20260510173015 | 33 | 360 | 3.2 | 0.0 | 0.00 | 0.00 | 0.00 | 29 | 1004.6 |
| 20260510171512 | 32 | 206 | 3.2 | 0.0 | 0.00 | 0.00 | 0.00 | 31 | 1004.7 |
| 20260510170011 | 32 | 279 | 4.8 | 0.0 | 0.00 | 0.00 | 0.00 | 29 | 1004.5 |
| 20260510164509 | 32 | 201 | 6.4 | 0.0 | 0.00 | 0.00 | 0.00 | 34 | 1004.6 |
| 20260510163007 | 31 | 212 | 6.4 | 0.0 | 0.00 | 0.00 | 0.00 | 35 | 1004.4 |
| 20260510161502 | 30 | 195 | 8.0 | 0.0 | 0.00 | 0.00 | 0.00 | 36 | 1004.4 |
| 20260510160057 | 30 | 192 | 9.7 | 0.0 | 0.00 | 0.00 | 0.00 | 39 | 1003.9 |
| 20260510154557 | 29 | 197 | 9.7 | 0.0 | 0.00 | 0.00 | 0.00 | 43 | 1003.9 |
| 20260510153049 | 28 | 170 | 9.7 | 0.0 | 0.00 | 0.00 | 0.00 | 47 | 1003.8 |
| 20260510151549 | 27 | 180 | 9.7 | 0.0 | 0.00 | 0.00 | 0.00 | 49 | 1003.8 |
| 20260510150051 | 26 | 208 | 8.0 | 0.0 | 0.00 | 0.00 | 0.00 | 50 | 1003.8 |
| 20260510144557 | 26 | 207 | 8.0 | 0.0 | 0.00 | 0.00 | 0.00 | 52 | 1003.8 |
| 20260510143039 | 26 | 169 | 9.7 | 0.0 | 0.00 | 0.00 | 0.00 | 55 | 1003.6 |
| 20260510141536 | 25 | 175 | 8.0 | 0.0 | 0.00 | 0.00 | 0.00 | 56 | 1003.5 |
| 20260510140033 | 23 | 190 | 6.4 | 0.0 | 0.00 | 0.00 | 0.00 | 62 | 1003.5 |
| 20260510134531 | 22 | 207 | 3.2 | 0.0 | 0.00 | 0.00 | 0.00 | 66 | 1003.6 |
| 20260510133028 | 22 | 118 | 6.4 | 0.0 | 0.00 | 0.00 | 0.00 | 66 | 1003.4 |
| 20260510131527 | 22 | 192 | 6.4 | 0.0 | 0.00 | 0.00 | 0.00 | 67 | 1003.3 |
| 20260510130024 | 21 | 142 | 8.0 | 0.0 | 0.00 | 0.00 | 0.00 | 67 | 1003.0 |
| 20260510124524 | 21 | 171 | 6.4 | 0.0 | 0.00 | 0.00 | 0.00 | 68 | 1002.9 |
| 20260510123019 | 21 | 202 | 8.0 | 0.0 | 0.00 | 0.00 | 0.00 | 67 | 1002.7 |
| 20260510121520 | 21 | 159 | 6.4 | 0.0 | 0.00 | 0.00 | 0.00 | 67 | 1002.6 |
| 20260510120022 | 21 | 187 | 4.8 | 0.0 | 0.00 | 0.00 | 0.00 | 66 | 1002.7 |
| 20260510114516 | 21 | 144 | 4.8 | 0.0 | 0.00 | 0.00 | 0.00 | 65 | 1002.5 |
| 20260510113013 | 21 | 147 | 4.8 | 0.0 | 0.00 | 0.00 | 0.00 | 65 | 1002.4 |
| 20260510111512 | 21 | 198 | 6.4 | 0.0 | 0.00 | 0.00 | 0.00 | 65 | 1002.5 |
| 20260510110013 | 21 | 136 | 4.8 | 0.0 | 0.00 | 0.00 | 0.00 | 64 | 1002.3 |
| 20260510104513 | 21 | 173 | 6.4 | 0.0 | 0.00 | 0.00 | 0.00 | 64 | 1002.0 |
| 20260510103009 | 21 | 153 | 6.4 | 0.0 | 0.00 | 0.00 | 0.00 | 62 | 1001.9 |
| 20260510101507 | 22 | 165 | 6.4 | 0.0 | 0.00 | 0.00 | 0.00 | 61 | 1001.9 |
| 20260510100007 | 22 | 169 | 4.8 | 0.0 | 0.00 | 0.00 | 0.00 | 61 | 1001.9 |
| 20260510094517 | 22 | 169 | 4.8 | 0.0 | 0.00 | 0.00 | 0.00 | 60 | 1001.9 |
| 20260510093003 | 22 | 156 | 4.8 | 0.0 | 0.00 | 0.00 | 0.00 | 59 | 1001.9 |
| 20260510091505 | 22 | 163 | 4.8 | 0.0 | 0.00 | 0.00 | 0.00 | 57 | 1001.9 |
| 20260510090001 | 22 | 152 | 4.8 | 0.0 | 0.00 | 0.00 | 0.00 | 56 | 1002.0 |
| 20260510084559 | 22 | 150 | 6.4 | 0.0 | 0.00 | 0.00 | 0.00 | 56 | 1001.9 |
| 20260510083106 | 22 | 136 | 4.8 | 0.0 | 0.00 | 0.00 | 0.00 | 56 | 1001.8 |
| 20260510081628 | 22 | 184 | 4.8 | 0.0 | 0.00 | 0.00 | 0.00 | 56 | 1001.9 |
| 20260510080056 | 23 | 199 | 6.4 | 0.0 | 0.00 | 0.00 | 0.00 | 54 | 1002.0 |
| 20260510074554 | 23 | 200 | 6.4 | 0.0 | 0.00 | 0.00 | 0.00 | 53 | 1002.2 |
| 20260510073049 | 23 | 187 | 6.4 | 0.0 | 0.00 | 0.00 | 0.00 | 52 | 1002.4 |
| 20260510071546 | 23 | 172 | 6.4 | 0.0 | 0.00 | 0.00 | 0.00 | 50 | 1002.6 |
| 20260510070047 | 23 | 161 | 6.4 | 0.0 | 0.00 | 0.00 | 0.00 | 48 | 1002.7 |
| 20260510064543 | 23 | 155 | 6.4 | 0.0 | 0.00 | 0.00 | 0.00 | 45 | 1002.7 |
| 20260510063041 | 23 | 167 | 6.4 | 0.0 | 0.00 | 0.00 | 0.00 | 44 | 1002.8 |
| 20260510061539 | 24 | 129 | 4.8 | 0.0 | 0.00 | 0.00 | 0.00 | 43 | 1002.9 |
| 20260510060046 | 25 | 152 | 6.4 | 0.0 | 0.00 | 0.00 | 0.00 | 42 | 1002.8 |
| 20260510054534 | 25 | 171 | 6.4 | 0.0 | 0.00 | 0.00 | 0.00 | 41 | 1002.7 |
| 20260510053032 | 25 | 148 | 8.0 | 0.0 | 0.00 | 0.00 | 0.00 | 40 | 1002.7 |
| 20260510051529 | 25 | 155 | 8.0 | 0.0 | 0.00 | 0.00 | 0.00 | 40 | 1002.6 |
| 20260510050027 | 25 | 151 | 8.0 | 0.0 | 0.00 | 0.00 | 0.00 | 39 | 1002.7 |
| 20260510044524 | 26 | 159 | 8.0 | 0.0 | 0.00 | 0.00 | 0.00 | 38 | 1002.7 |
| 20260510043025 | 26 | 157 | 8.0 | 0.0 | 0.00 | 0.00 | 0.00 | 36 | 1002.7 |
| 20260510041530 | 26 | 144 | 8.0 | 0.0 | 0.00 | 0.00 | 0.00 | 34 | 1002.7 |
| 20260510040025 | 27 | 140 | 8.0 | 0.0 | 0.00 | 0.00 | 0.00 | 32 | 1002.6 |
| 20260510034523 | 27 | 176 | 8.0 | 0.0 | 0.00 | 0.00 | 0.00 | 30 | 1002.5 |
| 20260510033024 | 27 | 150 | 6.4 | 0.0 | 0.00 | 0.00 | 0.00 | 29 | 1002.4 |
| 20260510031533 | 28 | 168 | 8.0 | 0.0 | 0.00 | 0.00 | 0.00 | 28 | 1002.3 |
| 20260510030023 | 28 | 158 | 9.7 | 0.0 | 0.00 | 0.00 | 0.00 | 28 | 1002.2 |
| 20260510024523 | 28 | 120 | 8.0 | 0.0 | 0.00 | 0.00 | 0.00 | 27 | 1002.1 |
| 20260510023036 | 29 | 150 | 8.0 | 0.0 | 0.00 | 0.00 | 0.00 | 27 | 1001.9 |
| 20260510021523 | 30 | 165 | 8.0 | 0.0 | 0.00 | 0.00 | 0.00 | 26 | 1001.8 |
| 20260510020021 | 30 | 152 | 8.0 | 0.0 | 0.00 | 0.00 | 0.00 | 25 | 1001.6 |
| 20260510014521 | 31 | 152 | 6.4 | 0.0 | 0.00 | 0.00 | 0.00 | 22 | 1001.4 |
| 20260510013020 | 31 | 143 | 6.4 | 0.0 | 0.00 | 0.00 | 0.00 | 19 | 1001.2 |
| 20260510011524 | 32 | 145 | 3.2 | 0.0 | 0.00 | 0.00 | 0.00 | 18 | 1001.0 |
| 20260510010025 | 32 | 132 | 4.8 | 0.0 | 0.00 | 0.00 | 0.00 | 18 | 1001.0 |
| 20260510004519 | 32 | 152 | 6.4 | 0.0 | 0.00 | 0.00 | 0.00 | 17 | 1001.1 |
| 20260510003017 | 33 | 180 | 6.4 | 0.0 | 0.00 | 0.00 | 0.00 | 16 | 1001.1 |
| 20260510001517 | 33 | 186 | 4.8 | 0.0 | 0.00 | 0.00 | 0.00 | 17 | 1001.2 |
| 20260510000015 | 33 | 141 | 6.4 | 0.0 | 0.00 | 0.00 | 0.00 | 17 | 1001.3 |
| 20260509234514 | 33 | 156 | 6.4 | 0.0 | 0.00 | 0.00 | 0.00 | 17 | 1001.4 |
| 20260509233013 | 33 | 210 | 4.8 | 0.0 | 0.00 | 0.00 | 0.00 | 17 | 1001.4 |
| 20260509231512 | 33 | 215 | 4.8 | 0.0 | 0.00 | 0.00 | 0.00 | 17 | 1001.6 |
| 20260509230010 | 33 | 146 | 6.4 | 0.0 | 0.00 | 0.00 | 0.00 | 18 | 1001.7 |
| 20260509224509 | 33 | 200 | 4.8 | 0.0 | 0.00 | 0.00 | 0.00 | 17 | 1001.7 |
| 20260509223008 | 33 | 179 | 4.8 | 0.0 | 0.00 | 0.00 | 0.00 | 18 | 1001.8 |
| 20260509221507 | 33 | 185 | 6.4 | 0.0 | 0.00 | 0.00 | 0.00 | 18 | 1002.0 |
| 20260509220005 | 33 | 194 | 8.0 | 0.0 | 0.00 | 0.00 | 0.00 | 18 | 1002.1 |
| 20260509214502 | 32 | 121 | 8.0 | 0.0 | 0.00 | 0.00 | 0.00 | 21 | 1002.3 |
| 20260509213002 | 32 | 186 | 6.4 | 0.0 | 0.00 | 0.00 | 0.00 | 21 | 1002.3 |
| 20260509211615 | 33 | 172 | 8.0 | 0.0 | 0.00 | 0.00 | 0.00 | 19 | 1002.8 |
| 20260509204603 | 33 | 179 | 8.0 | 0.0 | 0.00 | 0.00 | 0.00 | 21 | 1003.3 |
| 20260509203059 | 33 | 181 | 8.0 | 0.0 | 0.00 | 0.00 | 0.00 | 21 | 1003.4 |
| 20260509201551 | 33 | 161 | 6.4 | 0.0 | 0.00 | 0.00 | 0.00 | 23 | 1003.7 |
| 20260509200049 | 33 | 200 | 6.4 | 0.0 | 0.00 | 0.00 | 0.00 | 23 | 1003.9 |
| 20260509194547 | 33 | 122 | 6.4 | 0.0 | 0.00 | 0.00 | 0.00 | 24 | 1004.2 |
| 20260509193045 | 32 | 207 | 8.0 | 0.0 | 0.00 | 0.00 | 0.00 | 25 | 1004.4 |
| 20260509191542 | 32 | 214 | 6.4 | 0.0 | 0.00 | 0.00 | 0.00 | 27 | 1004.6 |